Regional Weather Roundup
Issued by NWS

Home | Current Version | Previous Version | Graphics & Text | Print | Product List | Glossary On
Versions: 1 2 3 4 5 6 7 8 9 10 11 12 13 14 15 16 17 18 19 20 21 22 23 24 25 26 27 28 29 30 31 32 33 34 35 36 37 38 39 40 41 42 43 44 45 46 47 48 49 50
000
ASUS44 KMEG 180610
RWRTN
TENNESSEE HOURLY STATE WEATHER ROUNDUP
NATIONAL WEATHER SERVICE MEMPHIS TN
100 AM CDT WED OCT 18 2017

TNZ002-004-019-021-049-052-054-088>092-180700-
WEST TENNESSEE

CITY           SKY/WX    TMP DP  RH WIND       PRES   REMARKS
MEMPHIS INTL   CLEAR     56  47  71 SE3       30.22F
NWS MEMPHIS      N/A     49 N/A N/A MISG        N/A
JACKSON        CLEAR     44  43  96 CALM      30.24F
SOMERVILLE     MOCLDY    48  46  93 CALM      30.22F
COVINGTON      PTCLDY    43  43 100 CALM      30.23F
UNION CITY     FOG       43  43 100 CALM      30.23F VSB 1/2
BOLIVAR        CLOUDY    43  41  93 CALM      30.23F FOG
PARIS          CLEAR     46  45  93 SE5       30.23F
HUNTINGDON     CLEAR     45  43  93 CALM      30.24S
LEXINGTON      CLEAR     43  43 100 CALM      30.25S
SELMER         CLEAR     46  45  93 CALM      30.24S
SAVANNAH       CLEAR     43  43 100 CALM      30.24S
$$

TNZ008-025-027-028-033-062-065-066-180700-
NORTH MIDDLE TENNESSEE

CITY           SKY/WX    TMP DP  RH WIND       PRES   REMARKS
NASHVILLE      CLEAR     47  44  90 S3        30.28S
PORTLAND       CLEAR     43  43 100 CALM      30.26S FOG
CLARKSVILLE    FOG       42  41  96 SE3       30.26S VSB 1/2
SMYRNA         CLEAR     44  43  96 CALM      30.28F
COOKEVILLE     CLEAR     41  39  93 CALM      30.28R FOG
GALLATIN       CLEAR     43  41  93 CALM      30.30S
CROSSVILLE     CLOUDY    41  39  93 CALM      30.30S
$$

TNZ061-075-076-078-094-096-097-180700-
SOUTH MIDDLE TENNESSEE

CITY           SKY/WX    TMP DP  RH WIND       PRES   REMARKS
FAYETTEVILLE   CLEAR     48  45  87 SE3       30.26F
TULLAHOMA        N/A     43  39  87 CALM      30.28F
WINCHESTER     CLEAR     45  45 100 CALM        N/A
COLUMBIA       CLEAR     45  43  93 CALM      30.24F
SHELBYVILLE    CLEAR     45  45 100 E6        30.27F
$$

TNZ017-018-042-046-047-180700-
NORTHEAST TENNESSEE

CITY           SKY/WX    TMP DP  RH WIND       PRES   REMARKS
TRI CITIES     CLEAR     40  40 100 CALM      30.32S
ELIZABETHTON   CLEAR     43  39  87 CALM      30.33R
$$

TNZ012-013-036-069-073-074-180700-
CENTRAL EAST TENNESSEE

CITY           SKY/WX    TMP DP  RH WIND       PRES   REMARKS
KNOXVILLE      CLOUDY    47  47 100 CALM      30.29S
OAK RIDGE      CLOUDY    45  45 100 CALM      30.31S
DOWNTOWN KNOXV CLEAR     46  46 100 CALM      30.30S
GATLINBURG     CLEAR     43  43 100 CALM      30.29F
MORRISTOWN     CLEAR     45  39  81 CALM      30.29F
JACKSBORO      CLEAR     41  41 100 CALM      30.34R
$$

TNZ083-085-099-180700-
SOUTHEAST TENNESSEE

CITY           SKY/WX    TMP DP  RH WIND       PRES   REMARKS
CHATTANOOGA    PTCLDY    49  45  86 CALM      30.30F
DAYTON         CLEAR     43  43 100 CALM      30.29S
$$

SKY/WX REPORTED AS FAIR MEANS FEW OR NO CLOUDS BELOW
12 THOUSAND FEET.





USA.gov is the U.S. government's official web portal to all federal, state and local government web resources and services.